owner,sensor,date,latitude,longitude,vertical_datum,sea_water_practical_salinity,qcFlag 
NERRS,ioos:station:NOAA.NERRS:rkblhwq:1,2016-09-02T20:45:00Z,26.0257,-81.7332,1.32,24.4,1111122 
NERRS,ioos:station:NOAA.NERRS:rkblhwq:1,2016-09-02T21:45:00Z,26.0257,-81.7332,1.2,23.0,1111122 
NERRS,ioos:station:NOAA.NERRS:rkblhwq:1,2016-09-02T22:45:00Z,26.0257,-81.7332,1.04,21.2,1111122 
NERRS,ioos:station:NOAA.NERRS:rkblhwq:1,2016-09-02T23:45:00Z,26.0257,-81.7332,0.9,16.4,1111122 
NERRS,ioos:station:NOAA.NERRS:rkblhwq:1,2016-09-03T00:45:00Z,26.0257,-81.7332,0.78,12.0,1111122 
NERRS,ioos:station:NOAA.NERRS:rkblhwq:1,2016-09-03T01:45:00Z,26.0257,-81.7332,0.68,7.6,1111122 
NERRS,ioos:station:NOAA.NERRS:rkblhwq:1,2016-09-03T02:45:00Z,26.0257,-81.7332,0.72,14.9,1111122 
NERRS,ioos:station:NOAA.NERRS:rkblhwq:1,2016-09-03T03:45:00Z,26.0257,-81.7332,0.86,16.6,1111122 
NERRS,ioos:station:NOAA.NERRS:rkblhwq:1,2016-09-03T04:45:00Z,26.0257,-81.7332,1.02,21.3,1111122 
NERRS,ioos:station:NOAA.NERRS:rkblhwq:1,2016-09-03T05:45:00Z,26.0257,-81.7332,1.16,22.2,1111122 
NERRS,ioos:station:NOAA.NERRS:rkblhwq:1,2016-09-03T06:45:00Z,26.0257,-81.7332,1.29,22.6,1111122 
NERRS,ioos:station:NOAA.NERRS:rkblhwq:1,2016-09-03T07:45:00Z,26.0257,-81.7332,1.29,21.6,1111122 
NERRS,ioos:station:NOAA.NERRS:rkblhwq:1,2016-09-03T08:45:00Z,26.0257,-81.7332,1.19,21.3,1111122 
NERRS,ioos:station:NOAA.NERRS:rkblhwq:1,2016-09-03T09:45:00Z,26.0257,-81.7332,1.07,20.4,1111122 
NERRS,ioos:station:NOAA.NERRS:rkblhwq:1,2016-09-03T10:45:00Z,26.0257,-81.7332,0.94,18.4,1111122 
NERRS,ioos:station:NOAA.NERRS:rkblhwq:1,2016-09-03T11:45:00Z,26.0257,-81.7332,0.81,17.6,1111122 
NERRS,ioos:station:NOAA.NERRS:rkblhwq:1,2016-09-03T12:45:00Z,26.0257,-81.7332,0.69,7.0,1111122 
NERRS,ioos:station:NOAA.NERRS:rkblhwq:1,2016-09-03T13:45:00Z,26.0257,-81.7332,0.62,13.4,1111122 
NERRS,ioos:station:NOAA.NERRS:rkblhwq:1,2016-09-03T14:45:00Z,26.0257,-81.7332,0.7,18.4,1111122 
NERRS,ioos:station:NOAA.NERRS:rkblhwq:1,2016-09-03T15:45:00Z,26.0257,-81.7332,0.86,17.9,1111122 
NERRS,ioos:station:NOAA.NERRS:rkblhwq:1,2016-09-03T16:45:00Z,26.0257,-81.7332,1.03,19.6,1111122 
NERRS,ioos:station:NOAA.NERRS:rkblhwq:1,2016-09-03T17:45:00Z,26.0257,-81.7332,1.18,20.5,1111122 
NERRS,ioos:station:NOAA.NERRS:rkblhwq:1,2016-09-03T18:45:00Z,26.0257,-81.7332,1.29,21.2,1111122 
NERRS,ioos:station:NOAA.NERRS:rkblhwq:1,2016-09-03T19:45:00Z,26.0257,-81.7332,1.35,21.5,1111122 
NERRS,ioos:station:NOAA.NERRS:rkblhwq:1,2016-09-03T20:45:00Z,26.0257,-81.7332,1.31,21.5,1111122 
NERRS,ioos:station:NOAA.NERRS:rkblhwq:1,2016-09-03T21:45:00Z,26.0257,-81.7332,1.2,21.6,1111122 
NERRS,ioos:station:NOAA.NERRS:rkblhwq:1,2016-09-03T22:45:00Z,26.0257,-81.7332,1.07,20.8,1111122 
NERRS,ioos:station:NOAA.NERRS:rkblhwq:1,2016-09-03T23:45:00Z,26.0257,-81.7332,0.92,19.8,1111122 
NERRS,ioos:station:NOAA.NERRS:rkblhwq:1,2016-09-04T00:45:00Z,26.0257,-81.7332,0.78,18.5,1111122 
NERRS,ioos:station:NOAA.NERRS:rkblhwq:1,2016-09-04T01:45:00Z,26.0257,-81.7332,0.69,8.7,1111122 
NERRS,ioos:station:NOAA.NERRS:rkblhwq:1,2016-09-04T02:45:00Z,26.0257,-81.7332,0.7,17.4,1111122 
NERRS,ioos:station:NOAA.NERRS:rkblhwq:1,2016-09-04T03:45:00Z,26.0257,-81.7332,0.82,19.3,1111122 
NERRS,ioos:station:NOAA.NERRS:rkblhwq:1,2016-09-04T04:45:00Z,26.0257,-81.7332,0.96,19.5,1111122 
NERRS,ioos:station:NOAA.NERRS:rkblhwq:1,2016-09-04T05:45:00Z,26.0257,-81.7332,1.11,21.2,1111122 
NERRS,ioos:station:NOAA.NERRS:rkblhwq:1,2016-09-04T06:45:00Z,26.0257,-81.7332,1.22,22.4,1111122 
NERRS,ioos:station:NOAA.NERRS:rkblhwq:1,2016-09-04T07:45:00Z,26.0257,-81.7332,1.28,22.7,1111122 
NERRS,ioos:station:NOAA.NERRS:rkblhwq:1,2016-09-04T08:45:00Z,26.0257,-81.7332,1.26,20.4,1111122 
NERRS,ioos:station:NOAA.NERRS:rkblhwq:1,2016-09-04T09:45:00Z,26.0257,-81.7332,1.15,20.0,1111122 
NERRS,ioos:station:NOAA.NERRS:rkblhwq:1,2016-09-04T10:45:00Z,26.0257,-81.7332,1.01,19.9,1111122 
NERRS,ioos:station:NOAA.NERRS:rkblhwq:1,2016-09-04T11:45:00Z,26.0257,-81.7332,0.87,20.6,1111122 
NERRS,ioos:station:NOAA.NERRS:rkblhwq:1,2016-09-04T12:45:00Z,26.0257,-81.7332,0.74,17.6,1111122 
NERRS,ioos:station:NOAA.NERRS:rkblhwq:1,2016-09-04T13:45:00Z,26.0257,-81.7332,0.63,11.7,1111122 
NERRS,ioos:station:NOAA.NERRS:rkblhwq:1,2016-09-04T14:45:00Z,26.0257,-81.7332,0.59,10.5,1111122 
NERRS,ioos:station:NOAA.NERRS:rkblhwq:1,2016-09-04T15:45:00Z,26.0257,-81.7332,0.69,20.7,1111122 
NERRS,ioos:station:NOAA.NERRS:rkblhwq:1,2016-09-04T16:45:00Z,26.0257,-81.7332,0.85,18.8,1111122 
NERRS,ioos:station:NOAA.NERRS:rkblhwq:1,2016-09-04T17:45:00Z,26.0257,-81.7332,1.01,19.6,1111122 
NERRS,ioos:station:NOAA.NERRS:rkblhwq:1,2016-09-04T18:45:00Z,26.0257,-81.7332,1.16,20.6,1111122 
NERRS,ioos:station:NOAA.NERRS:rkblhwq:1,2016-09-04T19:45:00Z,26.0257,-81.7332,1.24,22.2,1111122 
NERRS,ioos:station:NOAA.NERRS:rkblhwq:1,2016-09-04T20:45:00Z,26.0257,-81.7332,1.26,21.9,1111122 
NERRS,ioos:station:NOAA.NERRS:rkblhwq:1,2016-09-04T21:45:00Z,26.0257,-81.7332,1.18,21.1,1111122 
NERRS,ioos:station:NOAA.NERRS:rkblhwq:1,2016-09-04T22:45:00Z,26.0257,-81.7332,1.07,21.0,1111122 
NERRS,ioos:station:NOAA.NERRS:rkblhwq:1,2016-09-04T23:45:00Z,26.0257,-81.7332,0.95,20.0,1111122 
NERRS,ioos:station:NOAA.NERRS:rkblhwq:1,2016-09-05T00:45:00Z,26.0257,-81.7332,0.83,19.0,1111122 
NERRS,ioos:station:NOAA.NERRS:rkblhwq:1,2016-09-05T01:45:00Z,26.0257,-81.7332,0.73,18.2,1111122 
NERRS,ioos:station:NOAA.NERRS:rkblhwq:1,2016-09-05T02:45:00Z,26.0257,-81.7332,0.69,16.6,1111122 
NERRS,ioos:station:NOAA.NERRS:rkblhwq:1,2016-09-05T03:45:00Z,26.0257,-81.7332,0.78,19.8,1111122 
NERRS,ioos:station:NOAA.NERRS:rkblhwq:1,2016-09-05T04:45:00Z,26.0257,-81.7332,0.9,18.6,1111122 
NERRS,ioos:station:NOAA.NERRS:rkblhwq:1,2016-09-05T05:45:00Z,26.0257,-81.7332,1.01,21.0,1111122 
NERRS,ioos:station:NOAA.NERRS:rkblhwq:1,2016-09-05T06:45:00Z,26.0257,-81.7332,1.13,21.9,1111122 
NERRS,ioos:station:NOAA.NERRS:rkblhwq:1,2016-09-05T07:45:00Z,26.0257,-81.7332,1.22,23.1,1111122 
NERRS,ioos:station:NOAA.NERRS:rkblhwq:1,2016-09-05T08:45:00Z,26.0257,-81.7332,1.26,22.2,1111122 
NERRS,ioos:station:NOAA.NERRS:rkblhwq:1,2016-09-05T09:45:00Z,26.0257,-81.7332,1.2,18.6,1111122 
NERRS,ioos:station:NOAA.NERRS:rkblhwq:1,2016-09-05T10:45:00Z,26.0257,-81.7332,1.1,15.5,1111122 
NERRS,ioos:station:NOAA.NERRS:rkblhwq:1,2016-09-05T11:45:00Z,26.0257,-81.7332,0.96,18.1,1111122 
NERRS,ioos:station:NOAA.NERRS:rkblhwq:1,2016-09-05T12:45:00Z,26.0257,-81.7332,0.83,17.7,1111122 
NERRS,ioos:station:NOAA.NERRS:rkblhwq:1,2016-09-05T13:45:00Z,26.0257,-81.7332,0.72,14.2,1111122 
NERRS,ioos:station:NOAA.NERRS:rkblhwq:1,2016-09-05T14:45:00Z,26.0257,-81.7332,0.64,13.6,1111122 
NERRS,ioos:station:NOAA.NERRS:rkblhwq:1,2016-09-05T15:45:00Z,26.0257,-81.7332,0.64,13.3,1111122 
NERRS,ioos:station:NOAA.NERRS:rkblhwq:1,2016-09-05T16:45:00Z,26.0257,-81.7332,0.75,20.1,1111122 
NERRS,ioos:station:NOAA.NERRS:rkblhwq:1,2016-09-05T17:45:00Z,26.0257,-81.7332,0.89,19.3,1111122 
NERRS,ioos:station:NOAA.NERRS:rkblhwq:1,2016-09-05T18:45:00Z,26.0257,-81.7332,1.03,20.0,1111122 
NERRS,ioos:station:NOAA.NERRS:rkblhwq:1,2016-09-05T19:45:00Z,26.0257,-81.7332,1.16,20.9,1111122 
NERRS,ioos:station:NOAA.NERRS:rkblhwq:1,2016-09-05T20:45:00Z,26.0257,-81.7332,1.25,20.9,1111122 
NERRS,ioos:station:NOAA.NERRS:rkblhwq:1,2016-09-05T21:45:00Z,26.0257,-81.7332,1.24,19.9,1111122 
NERRS,ioos:station:NOAA.NERRS:rkblhwq:1,2016-09-05T22:45:00Z,26.0257,-81.7332,1.14,19.1,1111122 
NERRS,ioos:station:NOAA.NERRS:rkblhwq:1,2016-09-05T23:45:00Z,26.0257,-81.7332,1.03,19.5,1111122 
NERRS,ioos:station:NOAA.NERRS:rkblhwq:1,2016-09-06T00:45:00Z,26.0257,-81.7332,0.91,18.1,1111122 
NERRS,ioos:station:NOAA.NERRS:rkblhwq:1,2016-09-06T01:45:00Z,26.0257,-81.7332,0.82,14.1,1111122 
NERRS,ioos:station:NOAA.NERRS:rkblhwq:1,2016-09-06T02:45:00Z,26.0257,-81.7332,0.74,12.8,1111122 
NERRS,ioos:station:NOAA.NERRS:rkblhwq:1,2016-09-06T03:45:00Z,26.0257,-81.7332,0.71,12.4,1111122 
NERRS,ioos:station:NOAA.NERRS:rkblhwq:1,2016-09-06T04:45:00Z,26.0257,-81.7332,0.79,19.7,1111122 
NERRS,ioos:station:NOAA.NERRS:rkblhwq:1,2016-09-06T05:45:00Z,26.0257,-81.7332,0.94,18.1,1111122 
NERRS,ioos:station:NOAA.NERRS:rkblhwq:1,2016-09-06T06:45:00Z,26.0257,-81.7332,1.08,20.1,1111122 
NERRS,ioos:station:NOAA.NERRS:rkblhwq:1,2016-09-06T07:45:00Z,26.0257,-81.7332,1.2,21.1,1111122 
NERRS,ioos:station:NOAA.NERRS:rkblhwq:1,2016-09-06T08:45:00Z,26.0257,-81.7332,1.29,22.6,1111122 
NERRS,ioos:station:NOAA.NERRS:rkblhwq:1,2016-09-06T09:45:00Z,26.0257,-81.7332,1.28,21.1,1111122 
NERRS,ioos:station:NOAA.NERRS:rkblhwq:1,2016-09-06T10:45:00Z,26.0257,-81.7332,1.19,19.9,1111122 
NERRS,ioos:station:NOAA.NERRS:rkblhwq:1,2016-09-06T11:45:00Z,26.0257,-81.7332,1.08,19.9,1111122 
NERRS,ioos:station:NOAA.NERRS:rkblhwq:1,2016-09-06T12:45:00Z,26.0257,-81.7332,0.96,19.0,1111122 
NERRS,ioos:station:NOAA.NERRS:rkblhwq:1,2016-09-06T13:45:00Z,26.0257,-81.7332,0.85,18.5,1111122 
NERRS,ioos:station:NOAA.NERRS:rkblhwq:1,2016-09-06T14:45:00Z,26.0257,-81.7332,0.75,13.4,1111122 
NERRS,ioos:station:NOAA.NERRS:rkblhwq:1,2016-09-06T15:45:00Z,26.0257,-81.7332,0.69,11.1,1111122 
NERRS,ioos:station:NOAA.NERRS:rkblhwq:1,2016-09-06T16:45:00Z,26.0257,-81.7332,0.76,15.7,1111122 
NERRS,ioos:station:NOAA.NERRS:rkblhwq:1,2016-09-06T17:45:00Z,26.0257,-81.7332,0.88,17.6,1111122 
NERRS,ioos:station:NOAA.NERRS:rkblhwq:1,2016-09-06T18:45:00Z,26.0257,-81.7332,1.0,20.2,1111122 
NERRS,ioos:station:NOAA.NERRS:rkblhwq:1,2016-09-06T19:45:00Z,26.0257,-81.7332,1.1,20.9,1111122 
NERRS,ioos:station:NOAA.NERRS:rkblhwq:1,2016-09-06T20:45:00Z,26.0257,-81.7332,1.19,20.8,1111122 
NERRS,ioos:station:NOAA.NERRS:rkblhwq:1,2016-09-06T21:45:00Z,26.0257,-81.7332,1.22,21.0,1111122 
NERRS,ioos:station:NOAA.NERRS:rkblhwq:1,2016-09-06T22:45:00Z,26.0257,-81.7332,1.18,17.4,1111122 
NERRS,ioos:station:NOAA.NERRS:rkblhwq:1,2016-09-06T23:45:00Z,26.0257,-81.7332,1.08,19.0,1111122 
NERRS,ioos:station:NOAA.NERRS:rkblhwq:1,2016-09-07T00:45:00Z,26.0257,-81.7332,0.99,14.7,1111122 
NERRS,ioos:station:NOAA.NERRS:rkblhwq:1,2016-09-07T01:45:00Z,26.0257,-81.7332,0.91,12.3,1111122 
NERRS,ioos:station:NOAA.NERRS:rkblhwq:1,2016-09-07T02:45:00Z,26.0257,-81.7332,0.83,12.4,1111122 
NERRS,ioos:station:NOAA.NERRS:rkblhwq:1,2016-09-07T03:45:00Z,26.0257,-81.7332,0.79,11.2,1111122 
NERRS,ioos:station:NOAA.NERRS:rkblhwq:1,2016-09-07T04:45:00Z,26.0257,-81.7332,0.84,17.4,1111122 
NERRS,ioos:station:NOAA.NERRS:rkblhwq:1,2016-09-07T05:45:00Z,26.0257,-81.7332,0.94,19.8,1111122 
NERRS,ioos:station:NOAA.NERRS:rkblhwq:1,2016-09-07T06:45:00Z,26.0257,-81.7332,1.04,20.1,1111122 
NERRS,ioos:station:NOAA.NERRS:rkblhwq:1,2016-09-07T07:45:00Z,26.0257,-81.7332,1.14,20.9,1111122 
NERRS,ioos:station:NOAA.NERRS:rkblhwq:1,2016-09-07T08:45:00Z,26.0257,-81.7332,1.22,21.3,1111122 
NERRS,ioos:station:NOAA.NERRS:rkblhwq:1,2016-09-07T09:45:00Z,26.0257,-81.7332,1.26,21.2,1111122 
NERRS,ioos:station:NOAA.NERRS:rkblhwq:1,2016-09-07T10:45:00Z,26.0257,-81.7332,1.21,20.2,1111122 
NERRS,ioos:station:NOAA.NERRS:rkblhwq:1,2016-09-07T11:45:00Z,26.0257,-81.7332,1.13,20.0,1111122 
NERRS,ioos:station:NOAA.NERRS:rkblhwq:1,2016-09-07T12:45:00Z,26.0257,-81.7332,1.04,19.6,1111122 
NERRS,ioos:station:NOAA.NERRS:rkblhwq:1,2016-09-07T13:45:00Z,26.0257,-81.7332,0.93,12.2,1111122 
NERRS,ioos:station:NOAA.NERRS:rkblhwq:1,2016-09-07T14:45:00Z,26.0257,-81.7332,0.81,13.3,1111122 
NERRS,ioos:station:NOAA.NERRS:rkblhwq:1,2016-09-07T15:45:00Z,26.0257,-81.7332,0.72,13.3,1111122 
NERRS,ioos:station:NOAA.NERRS:rkblhwq:1,2016-09-07T16:45:00Z,26.0257,-81.7332,0.69,12.9,1111122 
NERRS,ioos:station:NOAA.NERRS:rkblhwq:1,2016-09-07T18:45:00Z,26.0257,-81.7332,0.85,17.5,1111122 
NERRS,ioos:station:NOAA.NERRS:rkblhwq:1,2016-09-07T19:45:00Z,26.0257,-81.7332,0.95,20.0,1111122 
NERRS,ioos:station:NOAA.NERRS:rkblhwq:1,2016-09-07T20:45:00Z,26.0257,-81.7332,1.05,20.0,1111122 
NERRS,ioos:station:NOAA.NERRS:rkblhwq:1,2016-09-07T21:45:00Z,26.0257,-81.7332,1.08,20.2,1111122 
NERRS,ioos:station:NOAA.NERRS:rkblhwq:1,2016-09-07T22:45:00Z,26.0257,-81.7332,1.11,19.4,1111122 
NERRS,ioos:station:NOAA.NERRS:rkblhwq:1,2016-09-07T23:45:00Z,26.0257,-81.7332,1.06,14.6,1111122 
NERRS,ioos:station:NOAA.NERRS:rkblhwq:1,2016-09-08T00:45:00Z,26.0257,-81.7332,1.0,12.8,1111122 
NERRS,ioos:station:NOAA.NERRS:rkblhwq:1,2016-09-08T01:45:00Z,26.0257,-81.7332,0.93,15.7,1111122 
NERRS,ioos:station:NOAA.NERRS:rkblhwq:1,2016-09-08T02:45:00Z,26.0257,-81.7332,0.86,11.0,1111122 
NERRS,ioos:station:NOAA.NERRS:rkblhwq:1,2016-09-08T03:45:00Z,26.0257,-81.7332,0.83,12.4,1111122 
NERRS,ioos:station:NOAA.NERRS:rkblhwq:1,2016-09-08T04:45:00Z,26.0257,-81.7332,0.85,13.9,1111122 
NERRS,ioos:station:NOAA.NERRS:rkblhwq:1,2016-09-08T05:45:00Z,26.0257,-81.7332,0.88,16.3,1111122 
NERRS,ioos:station:NOAA.NERRS:rkblhwq:1,2016-09-08T06:45:00Z,26.0257,-81.7332,0.97,19.4,1111122 
NERRS,ioos:station:NOAA.NERRS:rkblhwq:1,2016-09-08T07:45:00Z,26.0257,-81.7332,1.05,17.4,1111122 
NERRS,ioos:station:NOAA.NERRS:rkblhwq:1,2016-09-08T08:45:00Z,26.0257,-81.7332,1.12,18.8,1111122 
NERRS,ioos:station:NOAA.NERRS:rkblhwq:1,2016-09-08T09:45:00Z,26.0257,-81.7332,1.18,18.4,1111122 
NERRS,ioos:station:NOAA.NERRS:rkblhwq:1,2016-09-08T10:45:00Z,26.0257,-81.7332,1.19,21.3,1111122 
NERRS,ioos:station:NOAA.NERRS:rkblhwq:1,2016-09-08T11:45:00Z,26.0257,-81.7332,1.14,20.8,1111122 
NERRS,ioos:station:NOAA.NERRS:rkblhwq:1,2016-09-08T12:45:00Z,26.0257,-81.7332,1.06,15.3,1111122 
NERRS,ioos:station:NOAA.NERRS:rkblhwq:1,2016-09-08T13:45:00Z,26.0257,-81.7332,0.95,11.4,1111122 
NERRS,ioos:station:NOAA.NERRS:rkblhwq:1,2016-09-08T14:45:00Z,26.0257,-81.7332,0.83,12.7,1111122 
NERRS,ioos:station:NOAA.NERRS:rkblhwq:1,2016-09-08T15:45:00Z,26.0257,-81.7332,0.72,13.3,1111122 
NERRS,ioos:station:NOAA.NERRS:rkblhwq:1,2016-09-08T16:45:00Z,26.0257,-81.7332,0.63,13.8,1111122 
NERRS,ioos:station:NOAA.NERRS:rkblhwq:1,2016-09-08T17:45:00Z,26.0257,-81.7332,0.63,13.5,1111122 
NERRS,ioos:station:NOAA.NERRS:rkblhwq:1,2016-09-08T18:45:00Z,26.0257,-81.7332,0.69,17.7,1111122 
NERRS,ioos:station:NOAA.NERRS:rkblhwq:1,2016-09-08T19:45:00Z,26.0257,-81.7332,0.77,18.5,1111122 
NERRS,ioos:station:NOAA.NERRS:rkblhwq:1,2016-09-08T20:45:00Z,26.0257,-81.7332,0.88,18.3,1111122 
NERRS,ioos:station:NOAA.NERRS:rkblhwq:1,2016-09-08T21:45:00Z,26.0257,-81.7332,0.95,19.5,1111122 
NERRS,ioos:station:NOAA.NERRS:rkblhwq:1,2016-09-08T22:45:00Z,26.0257,-81.7332,1.01,19.7,1111122 
NERRS,ioos:station:NOAA.NERRS:rkblhwq:1,2016-09-08T23:45:00Z,26.0257,-81.7332,1.05,19.4,1111122 
NERRS,ioos:station:NOAA.NERRS:rkblhwq:1,2016-09-09T00:45:00Z,26.0257,-81.7332,1.05,19.2,1111122 
NERRS,ioos:station:NOAA.NERRS:rkblhwq:1,2016-09-09T01:45:00Z,26.0257,-81.7332,1.04,18.6,1111122 
NERRS,ioos:station:NOAA.NERRS:rkblhwq:1,2016-09-09T02:45:00Z,26.0257,-81.7332,1.0,14.4,1111122 
NERRS,ioos:station:NOAA.NERRS:rkblhwq:1,2016-09-09T03:45:00Z,26.0257,-81.7332,0.95,14.8,1111122 
NERRS,ioos:station:NOAA.NERRS:rkblhwq:1,2016-09-09T04:45:00Z,26.0257,-81.7332,0.91,14.7,1111122 
NERRS,ioos:station:NOAA.NERRS:rkblhwq:1,2016-09-09T05:45:00Z,26.0257,-81.7332,0.89,17.4,1111122 
NERRS,ioos:station:NOAA.NERRS:rkblhwq:1,2016-09-09T06:45:00Z,26.0257,-81.7332,0.92,18.0,1111122 
NERRS,ioos:station:NOAA.NERRS:rkblhwq:1,2016-09-09T07:45:00Z,26.0257,-81.7332,0.99,15.6,1111122 
NERRS,ioos:station:NOAA.NERRS:rkblhwq:1,2016-09-09T08:45:00Z,26.0257,-81.7332,1.08,18.1,1111122 
NERRS,ioos:station:NOAA.NERRS:rkblhwq:1,2016-09-09T09:45:00Z,26.0257,-81.7332,1.15,18.4,1111122 
NERRS,ioos:station:NOAA.NERRS:rkblhwq:1,2016-09-09T10:45:00Z,26.0257,-81.7332,1.19,20.2,1111122 
NERRS,ioos:station:NOAA.NERRS:rkblhwq:1,2016-09-09T11:45:00Z,26.0257,-81.7332,1.17,20.6,1111122 
NERRS,ioos:station:NOAA.NERRS:rkblhwq:1,2016-09-09T12:45:00Z,26.0257,-81.7332,1.12,19.3,1111122 
NERRS,ioos:station:NOAA.NERRS:rkblhwq:1,2016-09-09T13:45:00Z,26.0257,-81.7332,1.06,10.6,1111122 
NERRS,ioos:station:NOAA.NERRS:rkblhwq:1,2016-09-09T14:45:00Z,26.0257,-81.7332,0.96,11.4,1111122 
NERRS,ioos:station:NOAA.NERRS:rkblhwq:1,2016-09-09T15:45:00Z,26.0257,-81.7332,0.84,12.7,1111122 
NERRS,ioos:station:NOAA.NERRS:rkblhwq:1,2016-09-09T16:45:00Z,26.0257,-81.7332,0.73,14.5,1111122 
NERRS,ioos:station:NOAA.NERRS:rkblhwq:1,2016-09-09T17:45:00Z,26.0257,-81.7332,0.64,14.2,1111122 
NERRS,ioos:station:NOAA.NERRS:rkblhwq:1,2016-09-09T18:45:00Z,26.0257,-81.7332,0.61,14.5,1111122 
NERRS,ioos:station:NOAA.NERRS:rkblhwq:1,2016-09-09T19:45:00Z,26.0257,-81.7332,0.67,17.4,1111122 
NERRS,ioos:station:NOAA.NERRS:rkblhwq:1,2016-09-09T20:45:00Z,26.0257,-81.7332,0.77,18.5,1111122 
NERRS,ioos:station:NOAA.NERRS:rkblhwq:1,2016-09-09T21:45:00Z,26.0257,-81.7332,0.87,18.7,1111122 
NERRS,ioos:station:NOAA.NERRS:rkblhwq:1,2016-09-09T22:45:00Z,26.0257,-81.7332,0.95,18.7,1111122 
NERRS,ioos:station:NOAA.NERRS:rkblhwq:1,2016-09-09T23:45:00Z,26.0257,-81.7332,1.01,20.2,1111122 
NERRS,ioos:station:NOAA.NERRS:rkblhwq:1,2016-09-10T00:45:00Z,26.0257,-81.7332,1.06,20.0,1111122 
NERRS,ioos:station:NOAA.NERRS:rkblhwq:1,2016-09-10T03:45:00Z,26.0257,-81.7332,0.97,14.2,1111122 
NERRS,ioos:station:NOAA.NERRS:rkblhwq:1,2016-09-10T04:45:00Z,26.0257,-81.7332,0.92,16.3,1111122 
NERRS,ioos:station:NOAA.NERRS:rkblhwq:1,2016-09-10T05:45:00Z,26.0257,-81.7332,0.86,16.0,1111122 
NERRS,ioos:station:NOAA.NERRS:rkblhwq:1,2016-09-10T06:45:00Z,26.0257,-81.7332,0.83,15.1,1111122 
NERRS,ioos:station:NOAA.NERRS:rkblhwq:1,2016-09-10T07:45:00Z,26.0257,-81.7332,0.87,16.7,1111122 
NERRS,ioos:station:NOAA.NERRS:rkblhwq:1,2016-09-10T08:45:00Z,26.0257,-81.7332,0.95,20.6,1111122 
NERRS,ioos:station:NOAA.NERRS:rkblhwq:1,2016-09-10T09:45:00Z,26.0257,-81.7332,1.04,20.3,1111122 
NERRS,ioos:station:NOAA.NERRS:rkblhwq:1,2016-09-10T10:45:00Z,26.0257,-81.7332,1.12,18.8,1111122 
NERRS,ioos:station:NOAA.NERRS:rkblhwq:1,2016-09-10T11:45:00Z,26.0257,-81.7332,1.18,20.5,1111122 
NERRS,ioos:station:NOAA.NERRS:rkblhwq:1,2016-09-10T12:45:00Z,26.0257,-81.7332,1.23,20.2,1111122 
NERRS,ioos:station:NOAA.NERRS:rkblhwq:1,2016-09-10T13:45:00Z,26.0257,-81.7332,1.2,22.1,1111122 
NERRS,ioos:station:NOAA.NERRS:rkblhwq:1,2016-09-10T14:45:00Z,26.0257,-81.7332,1.12,12.5,1111122 
NERRS,ioos:station:NOAA.NERRS:rkblhwq:1,2016-09-10T15:45:00Z,26.0257,-81.7332,1.01,13.1,1111122 
NERRS,ioos:station:NOAA.NERRS:rkblhwq:1,2016-09-10T16:45:00Z,26.0257,-81.7332,0.9,14.1,1111122 
NERRS,ioos:station:NOAA.NERRS:rkblhwq:1,2016-09-10T17:45:00Z,26.0257,-81.7332,0.79,14.9,1111122 
NERRS,ioos:station:NOAA.NERRS:rkblhwq:1,2016-09-10T18:45:00Z,26.0257,-81.7332,0.69,14.1,1111122 
NERRS,ioos:station:NOAA.NERRS:rkblhwq:1,2016-09-10T19:45:00Z,26.0257,-81.7332,0.63,13.5,1111122 
NERRS,ioos:station:NOAA.NERRS:rkblhwq:1,2016-09-10T20:45:00Z,26.0257,-81.7332,0.64,15.5,1111122 
NERRS,ioos:station:NOAA.NERRS:rkblhwq:1,2016-09-10T21:45:00Z,26.0257,-81.7332,0.76,19.7,1111122 
NERRS,ioos:station:NOAA.NERRS:rkblhwq:1,2016-09-10T22:45:00Z,26.0257,-81.7332,0.87,19.8,1111122 
NERRS,ioos:station:NOAA.NERRS:rkblhwq:1,2016-09-10T23:45:00Z,26.0257,-81.7332,0.97,20.7,1111122 
NERRS,ioos:station:NOAA.NERRS:rkblhwq:1,2016-09-11T00:45:00Z,26.0257,-81.7332,1.05,21.3,1111122 
NERRS,ioos:station:NOAA.NERRS:rkblhwq:1,2016-09-11T01:45:00Z,26.0257,-81.7332,1.14,22.4,1111122 
NERRS,ioos:station:NOAA.NERRS:rkblhwq:1,2016-09-11T02:45:00Z,26.0257,-81.7332,1.18,21.2,1111122 
NERRS,ioos:station:NOAA.NERRS:rkblhwq:1,2016-09-11T03:45:00Z,26.0257,-81.7332,1.15,20.8,1111122 
NERRS,ioos:station:NOAA.NERRS:rkblhwq:1,2016-09-11T04:45:00Z,26.0257,-81.7332,1.07,20.3,1111122 
NERRS,ioos:station:NOAA.NERRS:rkblhwq:1,2016-09-11T05:45:00Z,26.0257,-81.7332,0.97,19.7,1111122 
NERRS,ioos:station:NOAA.NERRS:rkblhwq:1,2016-09-11T06:45:00Z,26.0257,-81.7332,0.92,19.3,1111122 
NERRS,ioos:station:NOAA.NERRS:rkblhwq:1,2016-09-11T07:45:00Z,26.0257,-81.7332,0.92,20.6,1111122 
NERRS,ioos:station:NOAA.NERRS:rkblhwq:1,2016-09-11T08:45:00Z,26.0257,-81.7332,0.97,20.9,1111122 
NERRS,ioos:station:NOAA.NERRS:rkblhwq:1,2016-09-11T09:45:00Z,26.0257,-81.7332,1.03,18.6,1111122 
NERRS,ioos:station:NOAA.NERRS:rkblhwq:1,2016-09-11T10:45:00Z,26.0257,-81.7332,1.12,19.7,1111122 
NERRS,ioos:station:NOAA.NERRS:rkblhwq:1,2016-09-11T11:45:00Z,26.0257,-81.7332,1.2,21.3,1111122 
NERRS,ioos:station:NOAA.NERRS:rkblhwq:1,2016-09-11T12:45:00Z,26.0257,-81.7332,1.25,22.9,1111122 
NERRS,ioos:station:NOAA.NERRS:rkblhwq:1,2016-09-11T13:45:00Z,26.0257,-81.7332,1.29,23.3,1111122 
NERRS,ioos:station:NOAA.NERRS:rkblhwq:1,2016-09-11T14:45:00Z,26.0257,-81.7332,1.23,20.8,1111122 
NERRS,ioos:station:NOAA.NERRS:rkblhwq:1,2016-09-11T15:45:00Z,26.0257,-81.7332,1.12,21.1,1111122 
NERRS,ioos:station:NOAA.NERRS:rkblhwq:1,2016-09-11T16:45:00Z,26.0257,-81.7332,1.0,19.3,1111122 
NERRS,ioos:station:NOAA.NERRS:rkblhwq:1,2016-09-11T17:45:00Z,26.0257,-81.7332,0.88,19.1,1111122 
NERRS,ioos:station:NOAA.NERRS:rkblhwq:1,2016-09-11T18:45:00Z,26.0257,-81.7332,0.76,19.8,1111122 
NERRS,ioos:station:NOAA.NERRS:rkblhwq:1,2016-09-11T19:45:00Z,26.0257,-81.7332,0.66,16.0,1111122 
NERRS,ioos:station:NOAA.NERRS:rkblhwq:1,2016-09-11T20:45:00Z,26.0257,-81.7332,0.58,15.0,1111122 
NERRS,ioos:station:NOAA.NERRS:rkblhwq:1,2016-09-11T21:45:00Z,26.0257,-81.7332,0.57,14.2,1111122 
NERRS,ioos:station:NOAA.NERRS:rkblhwq:1,2016-09-11T22:45:00Z,26.0257,-81.7332,0.62,17.4,1111122 
NERRS,ioos:station:NOAA.NERRS:rkblhwq:1,2016-09-11T23:45:00Z,26.0257,-81.7332,0.74,17.8,1111122 
NERRS,ioos:station:NOAA.NERRS:rkblhwq:1,2016-09-12T00:45:00Z,26.0257,-81.7332,0.86,18.5,1111122 
NERRS,ioos:station:NOAA.NERRS:rkblhwq:1,2016-09-12T01:45:00Z,26.0257,-81.7332,0.97,19.9,1111122 
NERRS,ioos:station:NOAA.NERRS:rkblhwq:1,2016-09-12T02:45:00Z,26.0257,-81.7332,1.05,20.6,1111122 
NERRS,ioos:station:NOAA.NERRS:rkblhwq:1,2016-09-12T03:45:00Z,26.0257,-81.7332,1.09,20.0,1111122 
NERRS,ioos:station:NOAA.NERRS:rkblhwq:1,2016-09-12T04:45:00Z,26.0257,-81.7332,1.08,20.0,1111122 
NERRS,ioos:station:NOAA.NERRS:rkblhwq:1,2016-09-12T05:45:00Z,26.0257,-81.7332,0.99,18.2,1111122 
NERRS,ioos:station:NOAA.NERRS:rkblhwq:1,2016-09-12T06:45:00Z,26.0257,-81.7332,0.88,17.7,1111122 
NERRS,ioos:station:NOAA.NERRS:rkblhwq:1,2016-09-12T07:45:00Z,26.0257,-81.7332,0.81,9.5,1111122 
NERRS,ioos:station:NOAA.NERRS:rkblhwq:1,2016-09-12T08:45:00Z,26.0257,-81.7332,0.79,13.6,1111122 
NERRS,ioos:station:NOAA.NERRS:rkblhwq:1,2016-09-12T09:45:00Z,26.0257,-81.7332,0.86,16.7,1111122 
NERRS,ioos:station:NOAA.NERRS:rkblhwq:1,2016-09-12T10:45:00Z,26.0257,-81.7332,0.96,18.0,1111122 
NERRS,ioos:station:NOAA.NERRS:rkblhwq:1,2016-09-12T11:45:00Z,26.0257,-81.7332,1.03,17.9,1111122 
NERRS,ioos:station:NOAA.NERRS:rkblhwq:1,2016-09-12T12:45:00Z,26.0257,-81.7332,1.1,18.5,1111122 
NERRS,ioos:station:NOAA.NERRS:rkblhwq:1,2016-09-12T13:45:00Z,26.0257,-81.7332,1.17,16.9,1111122 
NERRS,ioos:station:NOAA.NERRS:rkblhwq:1,2016-09-12T14:45:00Z,26.0257,-81.7332,1.22,18.2,1111122 
NERRS,ioos:station:NOAA.NERRS:rkblhwq:1,2016-09-12T15:45:00Z,26.0257,-81.7332,1.19,21.0,1111122 
NERRS,ioos:station:NOAA.NERRS:rkblhwq:1,2016-09-12T16:45:00Z,26.0257,-81.7332,1.08,19.0,1111122 
NERRS,ioos:station:NOAA.NERRS:rkblhwq:1,2016-09-12T17:45:00Z,26.0257,-81.7332,0.93,18.2,1111122 
NERRS,ioos:station:NOAA.NERRS:rkblhwq:1,2016-09-12T18:45:00Z,26.0257,-81.7332,0.79,15.2,1111122 
NERRS,ioos:station:NOAA.NERRS:rkblhwq:1,2016-09-12T19:45:00Z,26.0257,-81.7332,0.64,14.3,1111122 
NERRS,ioos:station:NOAA.NERRS:rkblhwq:1,2016-09-12T20:45:00Z,26.0257,-81.7332,0.53,11.7,1111122 
NERRS,ioos:station:NOAA.NERRS:rkblhwq:1,2016-09-12T21:45:00Z,26.0257,-81.7332,0.47,14.4,1111122 
NERRS,ioos:station:NOAA.NERRS:rkblhwq:1,2016-09-12T22:45:00Z,26.0257,-81.7332,0.53,13.9,1111122 
NERRS,ioos:station:NOAA.NERRS:rkblhwq:1,2016-09-12T23:45:00Z,26.0257,-81.7332,0.64,16.6,1111122 
NERRS,ioos:station:NOAA.NERRS:rkblhwq:1,2016-09-13T00:45:00Z,26.0257,-81.7332,0.75,17.1,1111122 
NERRS,ioos:station:NOAA.NERRS:rkblhwq:1,2016-09-13T01:45:00Z,26.0257,-81.7332,0.9,17.9,1111122 
NERRS,ioos:station:NOAA.NERRS:rkblhwq:1,2016-09-13T02:45:00Z,26.0257,-81.7332,1.04,18.9,1111122 
NERRS,ioos:station:NOAA.NERRS:rkblhwq:1,2016-09-13T03:45:00Z,26.0257,-81.7332,1.13,19.6,1111122 
NERRS,ioos:station:NOAA.NERRS:rkblhwq:1,2016-09-13T04:45:00Z,26.0257,-81.7332,1.15,19.3,1111122 